Total_Precipitation_Accumulation
0.45 0.44 0.45 0.46 0.39 0.36 0.47 0.58 0.89 1.19 1.54 1.87 1.94 1.99 2.05 2.22 2.14 1.89 1.73 1.57 1.43 1.40 1.47 1.49 1.45 1.44 1.47 1.62 1.70 1.92 2.04 2.04 1.99 1.91 1.84 1.81 1.75 1.60 1.44 1.30 1.25 1.32 1.26 1.20
0.48 0.39 0.48 0.47 0.46 0.49 0.57 0.66 0.89 1.22 1.69 1.92 1.92 1.94 2.02 2.14 2.11 1.91 1.61 1.46 1.41 1.36 1.47 1.42 1.38 1.34 1.32 1.45 1.49 1.62 1.75 1.75 1.68 1.66 1.70 1.65 1.63 1.52 1.42 1.31 1.25 1.27 1.23 1.12
0.69 0.44 0.65 0.94 0.73 0.74 0.82 0.85 1.04 1.44 1.66 1.73 1.84 1.88 1.93 2.07 2.16 2.04 1.76 1.63 1.64 1.67 1.67 1.52 1.41 1.34 1.37 1.43 1.47 1.53 1.60 1.54 1.54 1.54 1.50 1.48 1.35 1.29 1.33 1.36 1.29 1.22 1.13 1.02
0.72 0.86 1.35 1.19 0.68 0.75 0.89 0.91 0.96 1.09 1.23 1.41 1.54 1.65 1.82 1.99 2.13 2.12 1.99 1.94 1.94 1.88 1.74 1.59 1.47 1.42 1.42 1.42 1.47 1.56 1.53 1.45 1.38 1.39 1.34 1.31 1.29 1.28 1.28 1.29 1.25 1.21 1.11 1.00
1.00 1.30 1.46 1.18 0.72 0.70 1.03 1.19 0.94 0.96 0.99 1.04 1.07 1.25 1.66 1.81 1.88 1.97 1.96 1.93 1.84 1.76 1.66 1.55 1.44 1.39 1.34 1.35 1.34 1.35 1.30 1.25 1.16 1.20 1.26 1.27 1.24 1.31 1.29 1.20 1.15 1.09 1.03 1.00
1.15 1.53 1.77 1.47 0.72 0.54 0.94 1.64 1.15 0.96 1.01 1.06 1.18 1.45 1.53 1.42 1.42 1.51 1.54 1.57 1.61 1.62 1.52 1.42 1.32 1.24 1.22 1.25 1.23 1.19 1.16 1.14 1.04 1.05 1.12 1.20 1.22 1.25 1.16 1.09 1.06 0.94 0.91 0.96
1.19 1.55 1.71 0.97 0.58 0.74 1.59 1.95 1.32 1.10 1.13 1.25 1.35 1.33 1.10 1.02 1.08 1.20 1.33 1.35 1.35 1.49 1.52 1.34 1.14 1.08 1.15 1.14 1.12 1.00 0.98 1.04 1.04 1.03 1.04 1.06 1.08 1.13 1.09 1.02 1.00 0.99 0.98 1.00
1.28 1.73 1.87 0.86 0.69 1.14 1.39 1.10 1.04 1.06 1.08 1.10 1.01 0.86 0.83 0.85 0.88 0.93 1.12 1.24 1.23 1.35 1.29 1.12 1.00 1.04 1.10 1.08 0.96 0.89 0.95 1.08 1.09 1.06 0.95 0.93 1.07 1.13 1.06 1.01 0.96 1.00 1.01 1.01
1.36 1.61 1.27 0.72 0.71 0.77 0.74 0.80 0.81 0.80 0.75 0.70 0.72 0.69 0.69 0.76 0.83 0.88 0.98 1.09 1.10 1.15 1.12 1.03 0.98 1.04 1.09 1.04 0.91 0.93 1.02 1.08 1.10 1.03 1.00 0.99 1.04 1.05 0.98 0.95 0.88 0.87 0.89 0.92
0.96 0.97 0.71 0.62 0.60 0.58 0.57 0.64 0.64 0.67 0.72 0.62 0.64 0.66 0.66 0.70 0.79 0.88 0.94 0.97 0.97 1.03 1.02 0.97 0.90 0.91 0.93 0.86 0.84 0.96 1.06 1.04 1.03 1.04 1.03 0.97 0.92 0.89 0.86 0.85 0.80 0.76 0.78 0.81
0.86 0.74 0.64 0.62 0.55 0.54 0.58 0.56 0.54 0.58 0.68 0.68 0.65 0.71 0.70 0.71 0.77 0.83 0.90 0.92 0.94 1.01 1.01 0.90 0.84 0.80 0.79 0.80 0.87 0.98 0.99 0.91 0.90 0.93 0.90 0.87 0.76 0.71 0.70 0.65 0.58 0.56 0.57 0.59
0.82 0.67 0.73 0.70 0.53 0.46 0.55 0.59 0.57 0.59 0.68 0.66 0.64 0.71 0.77 0.79 0.77 0.77 0.84 0.87 0.90 0.89 0.89 0.84 0.76 0.72 0.74 0.76 0.77 0.88 0.87 0.82 0.78 0.80 0.79 0.73 0.69 0.64 0.58 0.47 0.44 0.41 0.39 0.41
0.53 0.48 0.49 0.47 0.46 0.52 0.59 0.59 0.63 0.67 0.61 0.55 0.61 0.68 0.76 0.82 0.72 0.68 0.70 0.74 0.79 0.78 0.76 0.74 0.70 0.71 0.72 0.64 0.65 0.75 0.80 0.79 0.69 0.66 0.69 0.68 0.64 0.65 0.67 0.53 0.43 0.40 0.39 0.41
0.42 0.47 0.56 0.59 0.64 0.62 0.58 0.55 0.56 0.55 0.48 0.45 0.51 0.59 0.64 0.67 0.62 0.61 0.66 0.66 0.62 0.66 0.67 0.67 0.65 0.63 0.58 0.54 0.61 0.67 0.67 0.63 0.60 0.60 0.59 0.56 0.56 0.56 0.59 0.66 0.66 0.60 0.48 0.45
0.48 0.51 0.58 0.56 0.54 0.50 0.46 0.43 0.44 0.45 0.41 0.45 0.44 0.47 0.49 0.52 0.53 0.51 0.53 0.51 0.52 0.58 0.60 0.55 0.53 0.56 0.54 0.52 0.56 0.58 0.53 0.49 0.48 0.46 0.46 0.48 0.50 0.49 0.51 0.56 0.62 0.65 0.63 0.55
0.43 0.41 0.42 0.44 0.43 0.41 0.39 0.40 0.40 0.41 0.38 0.40 0.40 0.40 0.39 0.39 0.38 0.35 0.36 0.40 0.57 0.64 0.58 0.50 0.47 0.48 0.48 0.51 0.56 0.55 0.49 0.43 0.39 0.37 0.37 0.39 0.41 0.45 0.50 0.51 0.52 0.58 0.61 0.55
0.43 0.43 0.40 0.37 0.33 0.32 0.30 0.28 0.29 0.33 0.32 0.34 0.34 0.30 0.29 0.29 0.32 0.32 0.36 0.43 0.50 0.52 0.49 0.46 0.42 0.35 0.38 0.45 0.50 0.45 0.39 0.37 0.34 0.31 0.35 0.36 0.37 0.40 0.46 0.45 0.49 0.53 0.50 0.47
0.39 0.35 0.30 0.28 0.26 0.25 0.24 0.21 0.21 0.27 0.30 0.30 0.29 0.28 0.27 0.30 0.34 0.34 0.36 0.41 0.44 0.43 0.39 0.34 0.32 0.31 0.29 0.34 0.41 0.38 0.34 0.34 0.29 0.28 0.30 0.33 0.36 0.38 0.39 0.42 0.44 0.44 0.44 0.43
0.28 0.22 0.20 0.21 0.20 0.20 0.21 0.18 0.19 0.22 0.23 0.26 0.28 0.28 0.29 0.31 0.32 0.32 0.35 0.42 0.47 0.47 0.39 0.28 0.28 0.27 0.24 0.26 0.30 0.30 0.29 0.31 0.30 0.28 0.29 0.32 0.35 0.39 0.37 0.35 0.37 0.40 0.42 0.41
0.20 0.16 0.17 0.17 0.15 0.16 0.18 0.17 0.18 0.20 0.21 0.23 0.26 0.29 0.32 0.31 0.27 0.30 0.38 0.47 0.49 0.44 0.35 0.29 0.24 0.22 0.21 0.21 0.23 0.24 0.26 0.29 0.28 0.26 0.27 0.31 0.34 0.33 0.30 0.29 0.35 0.40 0.43 0.44
0.19 0.16 0.16 0.17 0.16 0.16 0.18 0.19 0.19 0.19 0.18 0.20 0.23 0.25 0.28 0.28 0.24 0.30 0.40 0.51 0.46 0.37 0.30 0.29 0.26 0.21 0.20 0.20 0.21 0.23 0.24 0.25 0.24 0.24 0.26 0.32 0.32 0.28 0.27 0.28 0.30 0.36 0.41 0.45
0.17 0.17 0.19 0.18 0.18 0.18 0.19 0.19 0.19 0.20 0.20 0.21 0.21 0.21 0.25 0.29 0.27 0.30 0.34 0.39 0.37 0.30 0.25 0.23 0.21 0.21 0.20 0.19 0.17 0.19 0.22 0.24 0.23 0.26 0.28 0.26 0.26 0.27 0.28 0.29 0.31 0.33 0.36 0.41
0.21 0.21 0.22 0.20 0.20 0.18 0.17 0.20 0.23 0.23 0.22 0.21 0.19 0.21 0.24 0.28 0.28 0.28 0.28 0.24 0.22 0.24 0.23 0.20 0.20 0.20 0.17 0.15 0.15 0.19 0.21 0.22 0.22 0.24 0.24 0.26 0.27 0.30 0.34 0.32 0.31 0.32 0.38 0.42
0.31 0.32 0.25 0.20 0.20 0.22 0.22 0.21 0.21 0.21 0.21 0.19 0.19 0.19 0.21 0.24 0.26 0.24 0.24 0.22 0.22 0.21 0.18 0.18 0.20 0.17 0.15 0.13 0.16 0.18 0.20 0.20 0.19 0.20 0.21 0.22 0.23 0.25 0.31 0.35 0.34 0.33 0.34 0.34
0.42 0.43 0.34 0.26 0.26 0.27 0.24 0.22 0.21 0.18 0.16 0.15 0.16 0.19 0.20 0.21 0.21 0.22 0.25 0.25 0.26 0.24 0.19 0.17 0.16 0.15 0.15 0.17 0.19 0.20 0.20 0.19 0.18 0.17 0.16 0.19 0.21 0.21 0.23 0.27 0.28 0.27 0.27 0.29
0.47 0.45 0.39 0.34 0.30 0.26 0.23 0.24 0.23 0.20 0.18 0.17 0.16 0.16 0.17 0.20 0.23 0.25 0.27 0.25 0.27 0.24 0.21 0.19 0.18 0.18 0.18 0.20 0.19 0.20 0.20 0.18 0.15 0.14 0.14 0.17 0.19 0.21 0.21 0.23 0.23 0.23 0.25 0.27
0.52 0.44 0.40 0.35 0.29 0.25 0.25 0.27 0.26 0.22 0.18 0.19 0.20 0.18 0.19 0.21 0.23 0.23 0.24 0.25 0.24 0.21 0.19 0.19 0.18 0.17 0.19 0.19 0.18 0.20 0.22 0.20 0.16 0.16 0.17 0.18 0.21 0.24 0.24 0.22 0.22 0.23 0.26 0.27